| time (UTC) | temp F | wind direction | speed MPH | gust MPH | rain 1hr in | rain 24hr in | rain mn in | humidity % | barometer mb |
| 20260506223942 | 67 | 13 | 2.0 | 11.0 | 0.00 | 0.03 | 0.03 | 63 | 1011.5 |
| 20260506222942 | 67 | 71 | 1.0 | 4.0 | 0.00 | 0.03 | 0.03 | 66 | 1011.2 |
| 20260506221941 | 66 | 38 | 4.0 | 13.0 | 0.00 | 0.03 | 0.03 | 67 | 1011.2 |
| 20260506220940 | 66 | 63 | 2.0 | 11.0 | 0.00 | 0.03 | 0.03 | 65 | 1011.3 |
| 20260506215942 | 66 | 74 | 3.0 | 11.0 | 0.00 | 0.03 | 0.03 | 66 | 1011.3 |
| 20260506214940 | 65 | 65 | 2.0 | 9.0 | 0.00 | 0.03 | 0.03 | 66 | 1011.5 |
| 20260506213939 | 65 | 65 | 1.0 | 6.0 | 0.00 | 0.03 | 0.03 | 67 | 1011.6 |
| 20260506212939 | 65 | 65 | 2.0 | 9.0 | 0.00 | 0.03 | 0.03 | 67 | 1011.6 |
| 20260506211940 | 64 | 17 | 2.0 | 5.0 | 0.00 | 0.03 | 0.03 | 69 | 1011.5 |
| 20260506210934 | 63 | 0 | 1.0 | 6.0 | 0.00 | 0.03 | 0.03 | 69 | 1011.7 |
| 20260506210412 | 63 | 5 | 1.0 | 5.0 | 0.00 | 0.03 | 0.03 | 69 | 1011.9 |
| 20260506204931 | 63 | 40 | 2.0 | 5.0 | 0.00 | 0.03 | 0.03 | 69 | 1011.9 |
| 20260506203933 | 63 | 69 | 1.0 | 5.0 | 0.00 | 0.03 | 0.03 | 68 | 1011.6 |
| 20260506202931 | 63 | 0 | 1.0 | 5.0 | 0.00 | 0.03 | 0.03 | 70 | 1011.9 |
| 20260506201932 | 62 | 42 | 1.0 | 8.0 | 0.00 | 0.03 | 0.03 | 70 | 1012.2 |
| 20260506200931 | 62 | 64 | 2.0 | 10.0 | 0.00 | 0.03 | 0.03 | 69 | 1012.2 |
| 20260506195930 | 62 | 61 | 2.0 | 6.0 | 0.00 | 0.03 | 0.03 | 69 | 1012.5 |
| 20260506194934 | 62 | 63 | 2.0 | 9.0 | 0.00 | 0.03 | 0.03 | 71 | 1012.6 |
| 20260506193926 | 61 | 71 | 2.0 | 11.0 | 0.00 | 0.03 | 0.03 | 71 | 1012.6 |
| 20260506192927 | 61 | 71 | 1.0 | 9.0 | 0.00 | 0.03 | 0.03 | 73 | 1012.9 |
| 20260506191926 | 60 | 28 | 1.0 | 6.0 | 0.00 | 0.03 | 0.03 | 73 | 1012.9 |
| 20260506190925 | 60 | 80 | 2.0 | 7.0 | 0.00 | 0.03 | 0.03 | 72 | 1013.0 |
| 20260506185926 | 60 | 306 | 2.0 | 6.0 | 0.00 | 0.03 | 0.03 | 72 | 1013.0 |
| 20260506184926 | 60 | 5 | 2.0 | 9.0 | 0.00 | 0.03 | 0.03 | 73 | 1012.9 |
| 20260506184404 | 60 | 26 | 4.0 | 14.0 | 0.00 | 0.03 | 0.03 | 74 | 1012.6 |
| 20260506182925 | 59 | 340 | 6.0 | 13.0 | 0.00 | 0.03 | 0.03 | 75 | 1012.1 |
| 20260506181926 | 58 | 298 | 3.0 | 10.0 | 0.00 | 0.03 | 0.03 | 76 | 1012.4 |
| 20260506180921 | 58 | 355 | 5.0 | 14.0 | 0.00 | 0.03 | 0.03 | 77 | 1012.3 |
| 20260506175922 | 57 | 355 | 2.0 | 11.0 | 0.00 | 0.03 | 0.03 | 79 | 1012.4 |
| 20260506175835 | 56 | 355 | 2.0 | 8.0 | 0.00 | 0.03 | 0.03 | 78 | 1012.9 |
| 20260506173920 | 56 | 355 | 2.0 | 12.0 | 0.00 | 0.03 | 0.03 | 80 | 1012.8 |
| 20260506172922 | 55 | 23 | 2.0 | 9.0 | 0.00 | 0.03 | 0.03 | 81 | 1012.6 |
| 20260506171919 | 54 | 355 | 2.0 | 8.0 | 0.00 | 0.03 | 0.03 | 82 | 1012.6 |
| 20260506170920 | 54 | 57 | 2.0 | 7.0 | 0.00 | 0.03 | 0.03 | 82 | 1012.4 |
| 20260506165919 | 54 | 355 | 2.0 | 4.0 | 0.00 | 0.03 | 0.03 | 83 | 1012.8 |
| 20260506164921 | 53 | 5 | 2.0 | 5.0 | 0.00 | 0.03 | 0.03 | 84 | 1012.9 |
| 20260506163914 | 53 | 17 | 1.0 | 6.0 | 0.00 | 0.03 | 0.03 | 85 | 1012.9 |
| 20260506162914 | 53 | 12 | 2.0 | 7.0 | 0.00 | 0.03 | 0.03 | 86 | 1013.1 |
| 20260506161913 | 53 | 342 | 3.0 | 13.0 | 0.00 | 0.03 | 0.03 | 87 | 1012.9 |
| 20260506160915 | 53 | 0 | 5.0 | 14.0 | 0.00 | 0.03 | 0.03 | 87 | 1012.3 |
| 20260506155913 | 53 | 17 | 3.0 | 9.0 | 0.02 | 0.03 | 0.03 | 88 | 1011.9 |
| 20260506154914 | 53 | 29 | 2.0 | 11.0 | 0.03 | 0.03 | 0.03 | 88 | 1012.1 |
| 20260506153914 | 52 | 10 | 2.0 | 11.0 | 0.03 | 0.03 | 0.03 | 88 | 1013.0 |
| 20260506152915 | 53 | 333 | 2.0 | 10.0 | 0.03 | 0.03 | 0.03 | 88 | 1013.2 |
| 20260506151916 | 52 | 331 | 6.0 | 14.0 | 0.03 | 0.03 | 0.03 | 87 | 1012.5 |
| 20260506150909 | 52 | 322 | 3.0 | 13.0 | 0.03 | 0.03 | 0.03 | 87 | 1012.7 |
| 20260506150306 | 52 | 338 | 3.0 | 8.0 | 0.00 | 0.00 | 0.00 | 86 | 1014.3 |
| 20260506145941 | 52 | 333 | 3.0 | 8.0 | 0.01 | 0.01 | 0.01 | 86 | 1014.5 |
| 20260506143907 | 52 | 328 | 3.0 | 12.0 | 0.00 | 0.00 | 0.00 | 85 | 1014.1 |
| 20260506142907 | 52 | 0 | 3.0 | 13.0 | 0.00 | 0.00 | 0.00 | 85 | 1012.8 |
| 20260506141909 | 52 | 0 | 2.0 | 7.0 | 0.00 | 0.00 | 0.00 | 85 | 1012.1 |
| 20260506140910 | 52 | 355 | 5.0 | 11.0 | 0.00 | 0.00 | 0.00 | 84 | 1012.4 |
| 20260506135908 | 52 | 327 | 5.0 | 12.0 | 0.00 | 0.00 | 0.00 | 84 | 1013.2 |
| 20260506134908 | 52 | 346 | 6.0 | 13.0 | 0.00 | 0.00 | 0.00 | 84 | 1012.9 |
| 20260506133902 | 52 | 321 | 3.0 | 9.0 | 0.00 | 0.00 | 0.00 | 84 | 1012.8 |
| 20260506132902 | 52 | 13 | 2.0 | 13.0 | 0.00 | 0.00 | 0.00 | 84 | 1012.2 |
| 20260506132830 | 51 | 5 | 3.0 | 14.0 | 0.00 | 0.00 | 0.00 | 84 | 1011.9 |
| 20260506130905 | 51 | 310 | 3.0 | 11.0 | 0.00 | 0.00 | 0.00 | 84 | 1012.1 |
| 20260506125901 | 51 | 0 | 3.0 | 9.0 | 0.00 | 0.00 | 0.00 | 84 | 1011.8 |
| 20260506124901 | 51 | 10 | 3.0 | 14.0 | 0.00 | 0.00 | 0.00 | 83 | 1011.6 |
| 20260506123903 | 52 | 5 | 4.0 | 13.0 | 0.00 | 0.00 | 0.00 | 82 | 1011.3 |
| 20260506122901 | 52 | 39 | 4.0 | 13.0 | 0.00 | 0.00 | 0.00 | 81 | 1011.5 |
| 20260506121903 | 52 | 332 | 5.0 | 13.0 | 0.00 | 0.00 | 0.00 | 81 | 1011.5 |
| 20260506120856 | 53 | 341 | 4.0 | 13.0 | 0.00 | 0.00 | 0.00 | 80 | 1011.2 |
| 20260506115857 | 53 | 333 | 6.0 | 13.0 | 0.00 | 0.00 | 0.00 | 79 | 1011.2 |
| 20260506114856 | 53 | 348 | 7.0 | 14.0 | 0.00 | 0.00 | 0.00 | 78 | 1011.2 |
| 20260506113856 | 54 | 10 | 5.0 | 14.0 | 0.00 | 0.00 | 0.00 | 77 | 1010.9 |
| 20260506113335 | 54 | 5 | 3.0 | 11.0 | 0.00 | 0.00 | 0.00 | 76 | 1010.5 |
| 20260506111904 | 54 | 5 | 6.0 | 13.0 | 0.00 | 0.00 | 0.00 | 76 | 1010.5 |
| 20260506110856 | 54 | 334 | 5.0 | 13.0 | 0.00 | 0.00 | 0.00 | 75 | 1010.2 |
| 20260506105856 | 55 | 0 | 6.0 | 13.0 | 0.00 | 0.00 | 0.00 | 75 | 1009.9 |
| 20260506105340 | 55 | 325 | 3.0 | 14.0 | 0.00 | 0.00 | 0.00 | 76 | 1009.8 |
| 20260506103850 | 55 | 355 | 4.0 | 12.0 | 0.00 | 0.00 | 0.00 | 76 | 1009.8 |
| 20260506102852 | 55 | 331 | 6.0 | 14.0 | 0.00 | 0.00 | 0.00 | 75 | 1009.7 |
| 20260506101849 | 56 | 0 | 4.0 | 12.0 | 0.00 | 0.00 | 0.00 | 76 | 1009.6 |
| 20260506100849 | 56 | 327 | 3.0 | 8.0 | 0.00 | 0.00 | 0.00 | 77 | 1009.3 |
| 20260506100326 | 56 | 340 | 2.0 | 6.0 | 0.00 | 0.00 | 0.00 | 77 | 1009.1 |
| 20260506094849 | 56 | 355 | 2.0 | 10.0 | 0.00 | 0.00 | 0.00 | 77 | 1008.8 |
| 20260506093851 | 56 | 5 | 4.0 | 11.0 | 0.00 | 0.00 | 0.00 | 76 | 1008.8 |
| 20260506092850 | 56 | 333 | 4.0 | 12.0 | 0.00 | 0.00 | 0.00 | 77 | 1009.0 |
| 20260506092340 | 56 | 346 | 2.0 | 8.0 | 0.00 | 0.00 | 0.00 | 77 | 1008.7 |
| 20260506090844 | 56 | 17 | 2.0 | 10.0 | 0.00 | 0.00 | 0.00 | 77 | 1008.7 |
| 20260506085846 | 56 | 338 | 4.0 | 11.0 | 0.00 | 0.00 | 0.00 | 77 | 1008.7 |
| 20260506084844 | 56 | 341 | 3.0 | 9.0 | 0.00 | 0.00 | 0.00 | 77 | 1008.7 |
| 20260506083844 | 57 | 80 | 3.0 | 9.0 | 0.00 | 0.00 | 0.00 | 78 | 1008.6 |
| 20260506082843 | 57 | 5 | 3.0 | 9.0 | 0.00 | 0.00 | 0.00 | 78 | 1008.3 |
| 20260506081845 | 57 | 339 | 3.0 | 9.0 | 0.00 | 0.00 | 0.00 | 78 | 1008.3 |
| 20260506081326 | 57 | 339 | 4.0 | 12.0 | 0.00 | 0.00 | 0.00 | 78 | 1008.5 |
| 20260506072838 | 57 | 329 | 2.0 | 8.0 | 0.00 | 0.00 | 0.00 | 80 | 1008.4 |
| 20260506071839 | 57 | 342 | 0.0 | 3.0 | 0.00 | 0.00 | 0.00 | 80 | 1007.9 |
| 20260506071322 | 57 | 5 | 0.0 | 3.0 | 0.00 | 0.00 | 0.00 | 80 | 1008.0 |
| 20260506061839 | 59 | 50 | 2.0 | 9.0 | 0.00 | 0.00 | 0.00 | 80 | 1008.1 |
| 20260506060832 | 59 | 0 | 2.0 | 6.0 | 0.00 | 0.00 | 0.00 | 80 | 1008.0 |
| 20260506051406 | 60 | 5 | 2.0 | 6.0 | 0.00 | 0.00 | 0.00 | 79 | 1008.2 |
| 20260506051230 | 60 | 20 | 3.0 | 8.0 | 0.00 | 0.00 | 0.00 | 78 | 1008.2 |
| 20260506044831 | 61 | 11 | 2.0 | 7.0 | 0.00 | 0.00 | 0.00 | 78 | 1008.1 |
| 20260506043835 | 61 | 344 | 2.0 | 8.0 | 0.00 | 0.00 | 0.00 | 78 | 1007.9 |
| 20260506042824 | 62 | 0 | 2.0 | 8.0 | 0.00 | 0.00 | 0.00 | 78 | 1007.9 |
| 20260506041823 | 62 | 5 | 3.0 | 10.0 | 0.00 | 0.00 | 0.00 | 78 | 1007.9 |
| 20260506040831 | 62 | 338 | 4.0 | 12.0 | 0.00 | 0.00 | 0.00 | 77 | 1007.9 |
| 20260506035823 | 62 | 38 | 4.0 | 14.0 | 0.00 | 0.00 | 0.00 | 77 | 1007.9 |
| 20260506034824 | 63 | 54 | 3.0 | 12.0 | 0.00 | 0.00 | 0.00 | 77 | 1007.9 |
| 20260506033826 | 63 | 346 | 5.0 | 16.0 | 0.00 | 0.00 | 0.00 | 76 | 1007.5 |
| 20260506032823 | 64 | 0 | 5.0 | 13.0 | 0.00 | 0.00 | 0.00 | 76 | 1007.3 |
| 20260506031826 | 64 | 327 | 5.0 | 12.0 | 0.00 | 0.00 | 0.00 | 75 | 1006.9 |
| 20260506030819 | 65 | 5 | 2.0 | 8.0 | 0.00 | 0.00 | 0.00 | 75 | 1006.7 |
| 20260506025818 | 65 | 355 | 3.0 | 9.0 | 0.00 | 0.00 | 0.00 | 74 | 1006.5 |
| 20260506025255 | 66 | 0 | 4.0 | 13.0 | 0.00 | 0.00 | 0.00 | 73 | 1006.4 |
| 20260506023818 | 66 | 9 | 1.0 | 6.0 | 0.00 | 0.00 | 0.00 | 74 | 1006.2 |
| 20260506022818 | 66 | 16 | 3.0 | 10.0 | 0.00 | 0.00 | 0.00 | 73 | 1006.1 |
| 20260506021819 | 67 | 343 | 3.0 | 9.0 | 0.00 | 0.00 | 0.00 | 72 | 1006.0 |
| 20260506020820 | 67 | 346 | 2.0 | 8.0 | 0.00 | 0.00 | 0.00 | 72 | 1005.6 |
| 20260506015818 | 67 | 355 | 4.0 | 10.0 | 0.00 | 0.00 | 0.00 | 72 | 1005.6 |
| 20260506014818 | 67 | 351 | 2.0 | 8.0 | 0.00 | 0.00 | 0.00 | 72 | 1005.6 |
| 20260506013815 | 68 | 15 | 1.0 | 5.0 | 0.00 | 0.00 | 0.00 | 71 | 1005.0 |
| 20260506013216 | 69 | 5 | 1.0 | 8.0 | 0.00 | 0.00 | 0.00 | 71 | 1004.6 |
| 20260506012851 | 69 | 5 | 2.0 | 10.0 | 0.00 | 0.00 | 0.00 | 71 | 1004.9 |
| 20260506011304 | 70 | 31 | 3.0 | 10.0 | 0.00 | 0.00 | 0.00 | 70 | 1004.2 |
| 20260506005818 | 70 | 16 | 2.0 | 10.0 | 0.00 | 0.00 | 0.00 | 69 | 1004.2 |
| 20260506004816 | 71 | 5 | 4.0 | 11.0 | 0.00 | 0.00 | 0.00 | 68 | 1003.8 |
| 20260506003816 | 71 | 5 | 3.0 | 12.0 | 0.00 | 0.00 | 0.00 | 68 | 1004.0 |
| 20260506002817 | 72 | 355 | 4.0 | 13.0 | 0.00 | 0.00 | 0.00 | 67 | 1003.6 |
| 20260506001810 | 73 | 5 | 11.0 | 19.0 | 0.00 | 0.00 | 0.00 | 65 | 1003.2 |
| 20260506000812 | 74 | 350 | 8.0 | 15.0 | 0.00 | 0.00 | 0.00 | 66 | 1003.2 |
| 20260506000257 | 74 | 344 | 10.0 | 17.0 | 0.00 | 0.00 | 0.00 | 64 | 1003.3 |
| 20260505234810 | 75 | 355 | 9.0 | 16.0 | 0.00 | 0.00 | 0.00 | 63 | 1003.2 |
| 20260505233809 | 75 | 355 | 9.0 | 14.0 | 0.00 | 0.00 | 0.00 | 62 | 1003.2 |
| 20260505232811 | 76 | 0 | 9.0 | 16.0 | 0.00 | 0.00 | 0.00 | 61 | 1003.2 |
| 20260505231810 | 76 | 0 | 10.0 | 15.0 | 0.00 | 0.00 | 0.00 | 61 | 1003.2 |
| 20260505230811 | 77 | 344 | 9.0 | 16.0 | 0.00 | 0.00 | 0.00 | 60 | 1003.2 |
| 20260505225810 | 78 | 291 | 11.0 | 18.0 | 0.00 | 0.00 | 0.00 | 58 | 1002.8 |
| 20260505225734 | 79 | 330 | 9.0 | 15.0 | 0.00 | 0.00 | 0.00 | 59 | 1003.1 |